Total_Precipitation_Accumulation
0.29 0.34 0.43 0.57 0.52 0.36 0.16 0.05 0.01 0.02 0.04 0.04 0.05 0.05 0.06 0.10 0.14 0.20 0.17 0.18 0.17 0.20 0.28 0.47 0.65 0.65 0.60 0.54 0.48 0.44 0.45 0.49 0.55 0.58 0.60 0.54 0.52 0.52 0.58 0.60 0.60 0.62 0.65 0.71 0.79 0.78 0.74 0.64 0.44
0.33 0.48 0.69 0.79 0.54 0.32 0.16 0.05 0.02 0.02 0.04 0.04 0.05 0.06 0.09 0.13 0.15 0.15 0.18 0.24 0.28 0.27 0.33 0.47 0.66 0.69 0.67 0.60 0.51 0.49 0.52 0.55 0.63 0.68 0.70 0.70 0.67 0.65 0.63 0.64 0.62 0.60 0.60 0.61 0.63 0.53 0.48 0.42 0.31
0.54 0.75 0.94 0.85 0.59 0.31 0.16 0.06 0.03 0.03 0.04 0.05 0.06 0.10 0.17 0.19 0.19 0.21 0.23 0.29 0.38 0.42 0.43 0.59 0.76 0.83 0.80 0.70 0.61 0.57 0.60 0.63 0.67 0.75 0.84 0.86 0.86 0.78 0.70 0.64 0.60 0.55 0.51 0.42 0.38 0.34 0.31 0.28 0.25
0.86 1.11 1.14 0.91 0.52 0.24 0.12 0.10 0.06 0.06 0.05 0.05 0.08 0.14 0.21 0.21 0.24 0.27 0.32 0.39 0.42 0.55 0.61 0.78 0.96 1.04 1.03 0.86 0.76 0.72 0.70 0.71 0.73 0.77 0.85 0.93 1.00 0.96 0.82 0.65 0.51 0.45 0.42 0.36 0.29 0.26 0.25 0.22 0.19
1.17 1.31 1.18 0.84 0.40 0.19 0.10 0.10 0.09 0.08 0.08 0.09 0.11 0.17 0.27 0.26 0.32 0.45 0.46 0.49 0.50 0.57 0.70 0.91 1.15 1.22 1.22 1.10 0.99 0.95 0.92 0.89 0.86 0.85 0.90 0.95 0.97 0.90 0.79 0.59 0.46 0.42 0.41 0.38 0.30 0.27 0.27 0.25 0.21
1.38 1.43 1.13 0.68 0.32 0.16 0.10 0.11 0.13 0.13 0.12 0.15 0.19 0.26 0.38 0.42 0.51 0.62 0.66 0.64 0.59 0.62 0.80 1.03 1.31 1.35 1.33 1.28 1.16 1.12 1.14 1.12 1.06 1.02 1.02 1.03 1.00 0.88 0.74 0.61 0.51 0.44 0.42 0.42 0.35 0.31 0.28 0.28 0.25
1.33 1.28 0.92 0.50 0.29 0.19 0.13 0.13 0.17 0.19 0.17 0.19 0.23 0.33 0.50 0.66 0.81 0.84 0.90 0.92 0.89 0.88 1.01 1.19 1.41 1.50 1.53 1.43 1.28 1.21 1.21 1.22 1.18 1.11 1.05 0.97 0.91 0.85 0.74 0.61 0.56 0.50 0.46 0.47 0.40 0.35 0.31 0.30 0.29
1.30 1.45 0.87 0.50 0.32 0.24 0.16 0.15 0.18 0.24 0.24 0.21 0.28 0.39 0.54 0.76 1.03 1.17 1.27 1.34 1.31 1.26 1.34 1.44 1.52 1.54 1.55 1.48 1.36 1.28 1.22 1.24 1.29 1.21 1.02 0.88 0.81 0.82 0.75 0.60 0.55 0.51 0.49 0.47 0.42 0.36 0.32 0.30 0.27
1.25 1.61 0.97 0.48 0.40 0.29 0.24 0.22 0.23 0.27 0.34 0.30 0.31 0.40 0.58 0.84 1.25 1.50 1.76 1.78 1.75 1.73 1.66 1.70 1.71 1.70 1.68 1.61 1.45 1.43 1.34 1.27 1.27 1.23 1.03 0.89 0.87 0.82 0.74 0.58 0.47 0.47 0.46 0.45 0.44 0.39 0.33 0.28 0.23
1.26 1.34 0.86 0.51 0.46 0.41 0.39 0.36 0.37 0.43 0.49 0.46 0.42 0.57 0.83 1.21 1.62 1.80 1.79 1.83 1.84 1.98 1.89 1.82 1.80 1.74 1.77 1.72 1.63 1.66 1.52 1.36 1.24 1.08 1.03 0.98 0.91 0.81 0.68 0.61 0.52 0.48 0.44 0.45 0.48 0.46 0.40 0.31 0.22
0.92 0.81 0.66 0.59 0.51 0.52 0.52 0.49 0.45 0.52 0.52 0.50 0.43 0.59 0.94 1.44 1.85 2.13 2.21 2.02 2.01 2.11 2.13 2.08 2.01 1.90 1.80 1.87 1.75 1.68 1.63 1.48 1.36 1.17 1.11 1.09 1.07 0.96 0.85 0.75 0.72 0.65 0.53 0.52 0.50 0.51 0.40 0.28 0.21
0.70 0.55 0.61 0.69 0.61 0.59 0.59 0.59 0.54 0.56 0.55 0.52 0.52 0.63 0.94 1.38 1.84 2.14 2.44 2.33 2.37 2.37 2.32 2.32 2.24 2.17 1.98 1.90 1.86 1.80 1.68 1.54 1.39 1.22 1.16 1.15 1.08 0.99 0.88 0.75 0.71 0.70 0.56 0.53 0.50 0.44 0.36 0.30 0.24
0.61 0.58 0.60 0.70 0.69 0.61 0.60 0.61 0.61 0.60 0.61 0.64 0.70 0.84 1.04 1.38 1.88 2.24 2.64 2.75 2.70 2.64 2.61 2.55 2.39 2.31 2.22 2.03 1.89 1.87 1.85 1.71 1.54 1.42 1.27 1.15 1.04 0.91 0.85 0.79 0.77 0.74 0.64 0.55 0.52 0.43 0.41 0.37 0.31
0.53 0.60 0.66 0.73 0.75 0.65 0.65 0.60 0.62 0.64 0.69 0.78 0.80 0.89 1.08 1.42 1.82 2.25 2.67 2.89 2.72 2.80 2.89 2.86 2.67 2.45 2.37 2.16 1.90 1.84 1.93 1.91 1.86 1.66 1.40 1.35 1.23 1.07 0.94 0.87 0.82 0.77 0.71 0.64 0.58 0.49 0.48 0.46 0.42
0.60 0.73 0.78 0.76 0.74 0.71 0.73 0.76 0.64 0.62 0.77 0.85 0.83 0.92 1.04 1.31 1.74 2.10 2.40 2.64 2.70 2.72 2.95 3.04 2.92 2.77 2.54 2.39 2.16 1.94 2.01 2.04 2.00 1.85 1.64 1.55 1.48 1.35 1.20 1.05 0.93 0.80 0.75 0.74 0.74 0.71 0.65 0.58 0.51
0.93 1.04 0.96 0.73 0.72 0.72 0.86 0.88 0.63 0.61 0.73 0.83 0.87 0.93 1.01 1.15 1.57 2.00 2.24 2.49 2.73 2.75 2.83 3.07 3.06 3.00 2.86 2.64 2.41 2.10 2.00 2.03 1.97 1.81 1.71 1.64 1.56 1.50 1.41 1.21 1.08 1.01 0.97 0.91 0.87 0.84 0.79 0.68 0.58
1.31 1.14 0.78 0.66 0.68 0.74 0.80 0.83 0.64 0.58 0.69 0.78 0.87 0.90 0.96 1.04 1.32 1.79 2.12 2.30 2.63 2.72 2.79 2.96 3.05 3.09 3.15 3.06 2.87 2.50 2.18 2.14 2.09 1.93 1.71 1.64 1.60 1.53 1.48 1.34 1.21 1.20 1.16 1.06 0.97 0.91 0.84 0.77 0.70
0.96 0.76 0.59 0.63 0.65 0.64 0.68 0.72 0.69 0.66 0.72 0.75 0.85 0.93 0.96 0.99 1.10 1.45 1.94 2.15 2.64 2.91 3.00 3.02 3.12 3.31 3.45 3.54 3.35 3.08 2.61 2.32 2.21 2.08 1.85 1.69 1.63 1.58 1.52 1.44 1.35 1.28 1.31 1.26 1.15 1.02 0.94 0.86 0.80
0.71 0.65 0.57 0.56 0.55 0.63 0.65 0.70 0.75 0.72 0.69 0.75 0.85 0.92 0.95 0.97 1.06 1.35 1.77 2.06 2.49 2.95 3.13 3.19 3.13 3.27 3.55 3.48 3.26 2.97 2.67 2.45 2.25 2.15 2.05 1.86 1.74 1.65 1.57 1.44 1.45 1.41 1.33 1.31 1.31 1.28 1.21 1.10 1.04
0.89 0.82 0.65 0.60 0.56 0.68 0.67 0.70 0.68 0.68 0.67 0.68 0.76 0.82 0.85 0.85 0.97 1.26 1.55 1.86 2.11 2.69 3.03 3.09 3.20 3.32 3.48 3.40 3.28 3.18 3.02 2.79 2.56 2.41 2.15 1.98 1.82 1.71 1.66 1.55 1.42 1.44 1.45 1.38 1.36 1.38 1.40 1.37 1.33
0.99 0.84 0.66 0.69 0.75 0.73 0.71 0.78 0.64 0.60 0.58 0.58 0.70 0.77 0.77 0.79 0.93 1.12 1.32 1.59 1.76 2.15 2.60 2.81 2.89 3.13 3.29 3.47 3.73 3.71 3.52 3.12 2.65 2.37 2.24 2.08 2.02 1.91 1.75 1.73 1.64 1.50 1.50 1.45 1.37 1.30 1.29 1.34 1.40
0.99 0.65 0.65 0.71 0.91 0.96 0.77 0.99 0.70 0.59 0.57 0.56 0.66 0.73 0.75 0.77 0.87 1.03 1.18 1.30 1.49 1.75 2.16 2.54 2.76 2.91 2.96 3.08 3.37 3.49 3.33 2.94 2.54 2.29 2.30 2.35 2.27 2.20 2.09 1.95 1.87 1.73 1.62 1.55 1.53 1.51 1.43 1.40 1.39
0.89 0.61 0.72 0.82 0.99 1.02 0.72 0.88 0.77 0.59 0.63 0.63 0.66 0.73 0.76 0.82 0.93 1.03 1.09 1.10 1.22 1.47 1.87 2.23 2.51 2.76 2.77 2.71 2.87 3.13 3.25 3.12 2.91 2.64 2.48 2.45 2.41 2.30 2.21 2.12 2.04 1.89 1.77 1.72 1.72 1.67 1.64 1.60 1.51
0.94 0.99 1.13 1.25 1.61 1.63 0.71 0.70 0.74 0.72 0.79 0.71 0.66 0.75 0.82 0.93 1.01 1.03 1.06 1.06 1.10 1.26 1.55 1.88 2.16 2.50 2.70 2.61 2.68 2.79 2.87 2.98 2.92 2.64 2.55 2.48 2.51 2.44 2.28 2.15 2.09 2.02 1.94 1.86 1.85 1.86 1.80 1.71 1.63
1.44 1.97 2.54 2.53 2.33 1.40 0.46 0.53 0.78 0.72 0.73 0.73 0.73 0.78 0.81 0.85 0.91 0.92 0.92 0.96 1.07 1.19 1.34 1.58 1.73 2.00 2.35 2.46 2.47 2.51 2.58 2.66 2.76 2.68 2.57 2.51 2.40 2.32 2.30 2.22 2.16 2.13 2.00 1.93 1.91 1.87 1.81 1.78 1.71
1.49 1.77 1.98 1.75 1.19 0.69 0.43 0.61 0.76 0.66 0.65 0.67 0.69 0.73 0.82 0.90 0.93 0.94 0.92 0.97 1.10 1.16 1.24 1.38 1.51 1.65 1.95 2.20 2.19 2.19 2.33 2.40 2.40 2.46 2.41 2.37 2.29 2.21 2.24 2.25 2.14 2.12 2.08 1.96 1.89 1.83 1.74 1.73 1.71
1.42 1.35 1.10 1.38 1.00 0.76 0.63 0.58 0.57 0.48 0.52 0.57 0.58 0.62 0.77 0.88 0.90 0.95 0.97 1.02 1.08 1.11 1.18 1.28 1.38 1.41 1.56 1.86 1.99 2.00 2.04 2.05 1.99 2.00 2.01 2.05 2.07 2.08 2.08 2.11 2.02 1.93 1.91 1.88 1.84 1.78 1.68 1.63 1.61
1.24 1.11 1.21 1.67 1.44 1.04 0.64 0.53 0.71 0.63 0.61 0.61 0.62 0.65 0.74 0.83 0.89 0.95 0.99 0.96 0.95 0.99 1.09 1.20 1.23 1.23 1.29 1.46 1.60 1.75 1.81 1.78 1.79 1.77 1.72 1.70 1.69 1.73 1.80 1.85 1.84 1.77 1.73 1.71 1.68 1.62 1.59 1.58 1.50
1.05 1.22 1.32 1.33 1.12 1.13 0.83 0.73 0.74 0.68 0.67 0.68 0.73 0.73 0.77 0.80 0.90 0.99 1.02 0.97 0.93 0.97 1.04 1.13 1.13 1.13 1.16 1.25 1.32 1.40 1.51 1.57 1.60 1.57 1.46 1.45 1.42 1.40 1.45 1.47 1.49 1.52 1.51 1.51 1.50 1.47 1.46 1.47 1.42
0.83 0.94 1.12 1.45 1.13 0.88 0.87 0.78 0.58 0.58 0.61 0.65 0.75 0.76 0.75 0.76 0.83 0.90 0.96 0.94 0.95 1.00 1.03 1.09 1.08 1.09 1.08 1.13 1.16 1.19 1.28 1.40 1.45 1.48 1.38 1.29 1.29 1.24 1.25 1.25 1.23 1.23 1.23 1.26 1.27 1.25 1.26 1.29 1.29